This demonstration page uses our WeatherBlox Daily Observations layout. Learn more.

Left ArrowRight Arrow

39.92423, -83.80882

Hourly Observations for March 9, 2017

Temp ( °F °C ) Dew Point ( °F °C ) Humidity (%) Winds ( mph kmh ) Pressure ( in mb ) Visibility ( mi km ) Precip ( " mm )
12:56 am 00:56 Mostly Cloudy 45 7.2 26 -3.3 48 48 WSW 10 17 30.18 1022 10 16.0934 0 0
1:56 am 01:56 Clear 42 5.6 26 -3.3 53 53 WSW 7 11 30.18 1022 10 16.0934 0 0
2:56 am 02:56 Clear 42 5.6 25 -3.9 51 51 WSW 8 13 30.17 1022 10 16.0934 0 0
3:56 am 03:56 Clear 40 4.4 25 -3.9 55 55 W 5 7 30.17 1022 10 16.0934 0 0
4:56 am 04:56 Clear 39 3.9 24 -4.4 55 55 WSW 3 6 30.17 1022 10 16.0934 0 0
5:56 am 05:56 Clear 36 2.2 25 -3.9 64 64 SSW 5 7 30.17 1022 10 16.0934 0 0
6:56 am 06:56 Sunny 35 1.7 24 -4.4 64 64 WNW 3 6 30.18 1022 10 16.0934 0 0
8:56 am 08:56 Sunny 44 6.7 29 -1.7 55 55 Calm 30.18 1022 10 16.0934 0 0
9:56 am 09:56 Sunny 47 8.3 26 -3.3 44 44 VRB 3 6 30.19 1022 10 16.0934 0 0
10:56 am 10:56 Sunny 50 10 24 -4.4 36 36 Calm 30.17 1022 10 16.0934 0 0
11:56 am 11:56 Sunny 53 11.7 29 -1.7 40 40 Calm 30.14 1021 10 16.0934 0 0
12:56 pm 12:56 Mostly Sunny 56 13.3 31 -0.6 39 39 VRB 5 7 30.1 1019 10 16.0934 0 0
1:56 pm 13:56 Sunny 59 15 34 1.1 39 39 SW 7 11 30.05 1018 10 16.0934 0 0
2:56 pm 14:56 Sunny 62 16.7 37 2.8 40 40 WSW 9 15 30.02 1017 10 16.0934 0 0
3:56 pm 15:56 Sunny 62 16.7 37 2.8 40 40 NW 6 9 30 1016 10 16.0934 0 0
4:56 pm 16:56 Sunny 58 14.4 36 2.2 44 44 N 10 17 29.99 1016 10 16.0934 0 0
5:56 pm 17:56 Cloudy 55 12.8 33 0.6 44 44 NNE 10 17 29.99 1016 10 16.0934 0 0
6:56 pm 18:56 Cloudy 52 11.1 29 -1.7 41 41 N 9 15 30.01 1016 10 16.0934 0 0
7:56 pm 19:56 Cloudy 48 8.9 28 -2.2 46 46 NNE 14 22 30.04 1017 10 16.0934 0 0
8:56 pm 20:56 Cloudy 46 7.8 26 -3.3 46 46 NE 16 26 30.01 1016 10 16.0934 0 0
9:56 pm 21:56 Cloudy with Light Rain 43 6.1 27 -2.8 53 53 NNE 15 24 30.04 1017 10 16.0934 0 0.0254
10:56 pm 22:56 Cloudy with Light Rain 40 4.4 32 0 73 73 NNE 9 15 30.06 1018 10 16.0934 0 0.0254
11:56 pm 23:56 Cloudy with Light Rain 37 2.8 32 0 82 82 NNE 8 13 30.03 1017 10 16.0934 0.03 0.762

Powered by AerisWeather